[[{"header":{"parameterUnit":"m.s-1","parameterCategory":1,"la1":30.2991,"la2":30.254,"lo1":-89.0895,"lo2":-89.0444,"dy":0.0017,"dx":0.0017,"nx":28,"ny":28,"refTime":"2026-03-02T09:00:00:Z","depth":0,"parameterNumber":2,"parameterNumberName":"U-component_of_WINDS"},"data":[0,0,0,0,0,0,0,0,0,0,0,0,0,0,0,0,0,0,0,0,0,0,0,0,0,0,0,0,0,0,0,0,0,0,0,0,0,0,0,0,0,0,0,0,0,0,0,0,0,0,0,0,0,0,0,0,0,0,-4.6932,-4.6933,0,-4.6982,-4.6982,-4.6983,-4.6936,-4.6934,-4.6932,-4.6931,-4.6982,-4.6985,-4.6988,0,0,0,0,0,0,0,0,0,0,0,0,0,-4.6801,-4.6804,-4.6932,-4.6933,-4.6934,-4.6982,-4.6982,-4.6983,-4.6936,-4.6934,-4.6932,-4.693,-4.6981,-4.6985,-4.6988,0,0,0,0,0,0,0,0,0,0,0,0,0,-4.6855,-4.6804,-4.6932,-4.6916,-4.6915,-4.6981,-4.6982,-4.6983,-4.6937,-4.6934,-4.6931,-4.6929,-4.698,-4.6984,-4.6989,-4.7074,0,0,-4.7003,-4.7005,0,0,0,0,0,0,0,0,-4.6852,-4.686,-4.6918,-4.6917,-4.6916,-4.695,-4.6955,-4.7014,-4.6938,-4.6929,-4.6931,-4.6927,-4.6974,-4.6979,-4.6994,-4.7076,-4.7078,-4.7003,-4.7006,-4.7008,-4.701,0,0,0,0,0,0,0,-4.6848,-4.6857,-4.6952,-4.6919,-4.6918,-4.6908,-4.6912,-4.6966,-4.6966,-4.6929,-4.6926,-4.6932,-4.6973,-4.699,-4.6995,-4.7079,-4.7003,-4.7008,-4.701,-4.7012,-4.7236,-4.7239,0,0,0,0,0,0,-4.6846,-4.6855,-4.695,-4.6953,-4.6877,-4.6912,-4.6917,-4.6942,-4.6966,-4.6966,-4.6935,-4.693,-4.6983,-4.6989,-4.6997,-4.7098,-4.7008,-4.7013,-4.7015,-4.7233,-4.7237,-4.724,0,0,0,0,0,0,-4.6843,-4.6855,-4.6948,-4.6903,-4.6914,-4.6917,-4.6946,-4.6944,-4.6961,-4.697,-4.697,-4.6952,-4.6981,-4.699,-4.7055,-4.7099,-4.7015,-4.7019,-4.7229,-4.7234,-4.7239,-4.7301,0,0,0,0,0,0,-4.684,-4.6854,-4.6885,-4.6904,-4.6917,-4.7005,-4.6948,-4.6947,-4.6969,-4.6964,-4.6986,-4.6987,-4.698,-4.7049,-4.706,-4.7104,-4.7023,-4.7225,-4.7232,-4.7237,-4.7295,-4.7308,-4.7318,0,0,0,0,0,-4.6835,-4.6901,-4.6887,-4.6899,-4.6956,-4.7008,-4.7015,-4.7005,-4.6973,-4.7005,-4.7011,-4.6986,-4.7093,-4.7056,-4.7068,-4.7114,-4.7222,-4.723,-4.7237,-4.729,-4.7305,-4.7318,0,0,0,0,0,0,-4.6886,-4.6903,-4.6888,-4.6961,-4.6984,-4.7,-4.7039,-4.7021,-4.7053,-4.7046,-4.7034,-4.7039,-4.7109,-4.7118,-4.7076,-4.7199,-4.7153,-4.7163,-4.7189,-4.7204,-4.7215,-4.721,-4.7027,0,0,0,0,0,-4.6906,-4.6946,-4.6959,-4.7023,-4.7035,-4.7036,-4.7058,-4.7049,-4.7072,-4.7081,-4.7091,-4.7115,-4.7154,-4.718,-4.7216,-4.7298,-4.7303,-4.7336,-4.7348,-4.7357,-4.7365,-4.741,-4.7426,-4.7264,-4.7264,-4.7263,0,0,-4.6946,-4.6961,-4.6987,-4.7033,-4.7049,-4.7092,-4.7043,-4.709,-4.7122,-4.7088,-4.715,-4.716,-4.7185,-4.726,-4.7293,-4.727,-4.7412,-4.7366,-4.7374,-4.7376,-4.7419,-4.7435,-4.7448,-4.7268,-4.7268,-4.7267,0,0,-4.7042,-4.7058,-4.7113,-4.7131,-4.7157,-4.7158,-4.7171,-4.7192,-4.7196,-4.7259,-4.7235,-4.7274,-4.7341,-4.7361,-4.738,-4.7489,-4.7467,-4.7502,-4.756,-4.7605,-4.7618,-4.7629,-4.7668,-4.7682,-4.751,-4.7511,-4.7511,0,-4.709,-4.7152,-4.7143,-4.7193,-4.7214,-4.7187,-4.7244,-4.7262,-4.7299,-4.7315,-4.7289,-4.7375,-4.739,-4.747,-4.7497,-4.7513,-4.7529,-4.7497,-4.7617,-4.7628,-4.7638,-4.7675,-4.769,-4.7514,-4.7514,-4.7514,-4.7513,0,-4.721,-4.7254,-4.7296,-4.7333,-4.736,-4.7413,-4.7413,-4.7442,-4.7432,-4.7436,-4.7502,-4.7521,-4.7561,-4.758,-4.757,-4.7659,-4.7644,-4.7618,-4.7571,-4.7657,-4.7692,-4.7706,-4.752,-4.7519,-4.7517,-4.7516,0,0,-4.7334,-4.7368,-4.7383,-4.7401,-4.743,-4.7464,-4.7518,-4.7558,-4.7583,-4.7611,-4.7656,-4.7716,-4.7693,-4.7715,-4.7708,-4.7748,-4.7834,-4.7717,-4.7717,-4.7737,-4.7933,-4.7951,-4.7967,-4.7821,-4.7824,-4.7826,-4.7931,0,-4.743,-4.7521,-4.7517,-4.7603,-4.7645,-4.7622,-4.7669,-4.7692,-4.7699,-4.7737,-4.7745,-4.7787,-4.7754,-4.7767,-4.7806,-4.7815,-4.7872,-4.7808,-4.7862,-4.7864,-4.7854,-4.7985,-4.8003,-4.8101,-4.7944,-4.7946,-4.7948,0,-4.7553,-4.7586,-4.7676,-4.7702,-4.7719,-4.7761,-4.7799,-4.7835,-4.7863,-4.7865,-4.7892,-4.788,-4.7936,-4.7891,-4.7968,-4.7924,-4.7947,-4.7956,-4.7959,-4.7962,-4.7909,-4.799,-4.8132,-4.8146,-4.7969,-4.7967,-4.7966,0,-4.7634,-4.7701,-4.7764,-4.778,-4.7811,-4.7842,-4.7856,-4.7881,-4.7907,-4.7941,-4.7958,-4.7998,-4.802,-4.8053,-4.8053,-4.8019,-4.8132,-4.8085,-4.8135,-4.8135,-4.8157,-4.8155,-4.8303,-4.8176,-4.8175,-4.8175,-4.8175,0,-4.774,-4.7796,-4.7801,-4.7839,-4.7903,-4.7899,-4.7962,-4.7974,-4.7997,-4.8038,-4.8023,-4.8062,-4.8061,-4.8102,-4.8104,-4.8168,-4.8178,-4.8182,-4.8181,-4.8182,-4.8182,-4.8195,-4.8187,-4.8179,-4.8178,-4.8177,-4.8177,0,-4.7839,-4.7845,-4.7912,-4.7937,-4.7945,-4.7991,-4.8013,-4.8051,-4.8058,-4.8111,-4.8124,-4.8135,-4.8183,-4.8188,-4.8243,-4.8244,-4.8322,-4.8314,-4.8312,-4.831,-4.8359,-4.8354,-4.8518,-4.854,-4.8401,-4.8402,-4.8403,0,-4.7905,-4.7947,-4.7979,-4.8006,-4.8022,-4.8066,-4.8092,-4.8092,-4.812,-4.8158,-4.8191,-4.8238,-4.8274,-4.8353,-4.8366,-4.841,-4.8402,-4.8458,-4.8408,-4.8409,-4.8402,-4.8398,-4.8403,-4.8466,-4.8467,-4.8469,-4.847,0,-4.8021,-4.8023,-4.8062,-4.8103,-4.8135,-4.8168,-4.8198,-4.8221,-4.8225,-4.8258,-4.8307,-4.8336,-4.8394,-4.8441,-4.8484,-4.85,-4.8486,-4.8486,-4.8499,-4.8499,-4.8495,-4.8497,-4.8335,-4.8481,-4.848,-4.8479,-4.8478,-4.8478,-4.8105,-4.8142,-4.8171,-4.8215,-4.8239,-4.8268,-4.8305,-4.8319,-4.836,-4.8406,-4.8405,-4.8459,-4.849,-4.8546,-4.8567,-4.861,-4.8591,-4.8611,-4.8616,-4.862,-4.8625,-4.8491,-4.8618,-4.8618,-4.8617,-4.8617,-4.8617,0,-4.822,-4.8238,-4.8279,-4.8323,-4.8359,-4.8344,-4.8378,-4.8409,-4.8457,-4.8486,-4.8524,-4.8582,-4.8628,-4.8648,-4.8694,-4.8725,-4.872,-4.8737,-4.8733,-4.8737,-4.8639,-4.8622,-4.874,-4.874,-4.874,-4.874,-4.874,-4.874,-4.8283,-4.8346,-4.8352,-4.8428,-4.8446,-4.8499,-4.852,-4.8548,-4.8572,-4.8637,-4.8676,-4.8689,-4.8715,-4.8763,-4.8806,-4.8811,-4.8828,-4.8848,-4.885,-4.8757,-4.8744,-4.8732,-4.8716,-4.8852,-4.8852,-4.8944,-4.8945,-4.8946]},{"header":{"parameterUnit":"m.s-1","parameterCategory":1,"la1":30.2991,"la2":30.254,"lo1":-89.0895,"lo2":-89.0444,"dy":0.0017,"dx":0.0017,"nx":28,"ny":28,"refTime":"2026-03-02T09:00:00:Z","depth":0,"parameterNumber":3,"parameterNumberName":"V-component_of_WINDS"},"data":[0,0,0,0,0,0,0,0,0,0,0,0,0,0,0,0,0,0,0,0,0,0,0,0,0,0,0,0,0,0,0,0,0,0,0,0,0,0,0,0,0,0,0,0,0,0,0,0,0,0,0,0,0,0,0,0,0,0,1.8027,1.8027,0,1.8049,1.8049,1.8049,1.809,1.8091,1.8092,1.8093,1.811,1.811,1.8109,0,0,0,0,0,0,0,0,0,0,0,0,0,1.802,1.8019,1.8027,1.8027,1.8028,1.8048,1.8049,1.8049,1.809,1.8091,1.8092,1.8093,1.811,1.811,1.8109,0,0,0,0,0,0,0,0,0,0,0,0,0,1.803,1.8019,1.8027,1.8051,1.8053,1.8048,1.8049,1.8049,1.809,1.8091,1.8093,1.8094,1.811,1.811,1.8109,1.8081,0,0,1.8108,1.8108,0,0,0,0,0,0,0,0,1.8029,1.803,1.8047,1.8049,1.8052,1.8068,1.8052,1.806,1.809,1.8076,1.8093,1.8094,1.8095,1.8096,1.8097,1.8082,1.8083,1.8108,1.8108,1.8107,1.8107,0,0,0,0,0,0,0,1.8029,1.8029,1.8035,1.8047,1.805,1.806,1.8063,1.8054,1.8078,1.8077,1.808,1.8083,1.8096,1.8097,1.8097,1.8083,1.8108,1.8107,1.8107,1.8107,1.8051,1.805,0,0,0,0,0,0,1.8025,1.8029,1.8035,1.8036,1.8044,1.8059,1.8062,1.8062,1.8078,1.8082,1.8081,1.8084,1.8097,1.8098,1.8098,1.8069,1.8107,1.8107,1.8107,1.8052,1.805,1.8049,0,0,0,0,0,0,1.8024,1.8025,1.8034,1.8033,1.8035,1.8058,1.8057,1.8061,1.8062,1.8082,1.8086,1.8078,1.8098,1.8099,1.8087,1.807,1.8107,1.8106,1.8053,1.8051,1.805,1.8009,0,0,0,0,0,0,1.8024,1.8025,1.8014,1.8033,1.8035,1.8022,1.8056,1.8061,1.8062,1.8066,1.8079,1.8083,1.8099,1.8087,1.8086,1.807,1.8106,1.8055,1.8053,1.805,1.8012,1.8006,1.8001,0,0,0,0,0,1.8024,1.8,1.8014,1.8014,1.8023,1.8021,1.8022,1.8043,1.806,1.8051,1.8064,1.8082,1.8072,1.8085,1.8085,1.8068,1.8056,1.8053,1.8051,1.8015,1.8008,1.8002,0,0,0,0,0,0,1.7977,1.8003,1.8018,1.8,1.8009,1.8028,1.8016,1.8034,1.8036,1.804,1.8065,1.8067,1.8052,1.8059,1.8073,1.8044,1.8067,1.8064,1.804,1.8034,1.8028,1.8027,1.8105,0,0,0,0,0,1.7965,1.7962,1.7985,1.7967,1.7971,1.7993,1.7992,1.8008,1.8017,1.802,1.8032,1.8039,1.8038,1.8036,1.8035,1.8014,1.8018,1.8002,1.7997,1.7992,1.799,1.7981,1.7975,1.804,1.804,1.804,0,0,1.7939,1.7953,1.7949,1.7958,1.7966,1.7963,1.7995,1.7989,1.7987,1.8019,1.8009,1.8018,1.8027,1.8011,1.8004,1.8016,1.7973,1.7989,1.7985,1.7985,1.7978,1.7972,1.7966,1.8038,1.8039,1.8039,0,0,1.7891,1.7901,1.7889,1.7897,1.7911,1.7926,1.7923,1.7941,1.7949,1.794,1.7965,1.7962,1.7959,1.7966,1.7968,1.7927,1.7945,1.7926,1.7897,1.7889,1.7884,1.788,1.7867,1.7862,1.7923,1.7923,1.7923,0,1.7857,1.7854,1.7879,1.7874,1.7877,1.7909,1.7897,1.7903,1.7915,1.7916,1.793,1.7929,1.7937,1.7925,1.7915,1.7916,1.7914,1.7924,1.7883,1.7879,1.7875,1.7863,1.7858,1.7921,1.7921,1.7921,1.7921,0,1.7813,1.781,1.7799,1.7813,1.7815,1.7805,1.7829,1.7828,1.7845,1.7859,1.7851,1.7862,1.7866,1.7864,1.7879,1.7854,1.7862,1.7879,1.7903,1.7866,1.7855,1.7851,1.7917,1.7918,1.7919,1.7919,0,0,1.7733,1.7764,1.776,1.7768,1.7787,1.7785,1.7778,1.7784,1.7784,1.7791,1.7787,1.7785,1.7802,1.7805,1.7821,1.7814,1.7783,1.7832,1.7833,1.7824,1.7759,1.7747,1.7741,1.7796,1.7795,1.7794,1.7759,0,1.769,1.7682,1.7706,1.7691,1.769,1.7722,1.7716,1.7727,1.774,1.7741,1.7756,1.7755,1.7777,1.778,1.7774,1.7788,1.7771,1.7791,1.7792,1.7791,1.7789,1.7735,1.7722,1.7688,1.7755,1.7754,1.7754,0,1.7638,1.7647,1.7632,1.7655,1.7656,1.765,1.766,1.766,1.7674,1.7684,1.769,1.771,1.7705,1.7728,1.7722,1.7736,1.7737,1.7745,1.7744,1.7745,1.7771,1.7736,1.7677,1.7673,1.7747,1.7747,1.7748,0,1.7584,1.7592,1.7585,1.7591,1.7617,1.7613,1.7623,1.7638,1.7641,1.7649,1.7652,1.7658,1.7661,1.7666,1.7687,1.7702,1.7679,1.7704,1.7688,1.7688,1.7682,1.7682,1.7624,1.7682,1.7682,1.7682,1.7682,0,1.7534,1.7524,1.7562,1.7558,1.7549,1.7577,1.7567,1.758,1.7594,1.7593,1.762,1.7618,1.7646,1.7648,1.7664,1.7658,1.7659,1.7667,1.7672,1.7666,1.7665,1.7667,1.7671,1.7681,1.7681,1.7681,1.7681,0,1.7472,1.7496,1.7492,1.7518,1.7525,1.7517,1.7539,1.7537,1.7553,1.7552,1.7553,1.7579,1.7583,1.7605,1.7612,1.7624,1.7612,1.762,1.7608,1.7611,1.7595,1.7597,1.7537,1.7532,1.7592,1.7591,1.7591,0,1.7438,1.7432,1.746,1.7462,1.7472,1.7475,1.748,1.7508,1.7512,1.7529,1.7524,1.7531,1.7537,1.7542,1.756,1.7567,1.7577,1.7556,1.7578,1.7573,1.7579,1.7579,1.758,1.7551,1.755,1.7549,1.7549,0,1.7377,1.7391,1.7398,1.741,1.7415,1.7425,1.7437,1.7437,1.7468,1.7471,1.7477,1.7482,1.7492,1.7498,1.7509,1.7519,1.7539,1.7542,1.7539,1.7533,1.7526,1.7531,1.7596,1.7543,1.7544,1.7544,1.7544,1.7545,1.733,1.7327,1.7347,1.7354,1.7367,1.7378,1.7378,1.7396,1.7402,1.7414,1.743,1.7434,1.745,1.7467,1.7476,1.7479,1.749,1.7485,1.7484,1.7483,1.7481,1.7526,1.7481,1.7481,1.7481,1.7481,1.7481,0,1.7272,1.7287,1.7294,1.7311,1.7317,1.7338,1.7353,1.7356,1.736,1.7374,1.7381,1.7389,1.7396,1.7417,1.7426,1.7425,1.7435,1.7427,1.7427,1.743,1.7469,1.7471,1.7419,1.7419,1.7419,1.7419,1.7419,1.7419,1.7242,1.724,1.7256,1.7261,1.7276,1.7282,1.7289,1.73,1.7312,1.732,1.7327,1.7341,1.7358,1.737,1.7378,1.7384,1.7386,1.7375,1.7384,1.7421,1.7427,1.7432,1.7435,1.7375,1.7375,1.7345,1.7345,1.7345]}]]